Springfield, IL

9:17 AM CDT on June 27, 2017 (GMT -0500)
Capital

Weather History for KSPI - March, 2013

Change the Weather History Date:

Sunday, March 24, 2013

  Actual Average Record
Temperature  
Mean Temperature 33 °F 45 °F  
Max Temperature 35 °F 56 °F 84 °F (1929)
Min Temperature 30 °F 35 °F 3 °F (1974)
Degree Days  
Heating Degree Days 32 20  
Month to date heating degree days 727 582  
Since 1 July heating degree days 4636 4853  
Cooling Degree Days 0 0  
Month to date cooling degree days 0 0  
Year to date cooling degree days 0 0  
Moisture  
Dew Point 29 °F    
Average Humidity 82    
Maximum Humidity 100    
Minimum Humidity 64    
Precipitation  
Precipitation 1.55 in 0.09 in 2.15 in (1913)
Month to date precipitation 3.24 1.99  
Year to date precipitation 8.96 5.62  
Snow  
Snow 17.00 in 0.00 in 17.00 in (2013)
Month to date snowfall 18.1 2.2  
Since 1 July snowfall 31.6 20.3  
Snow Depth 1.00 in    
Sea Level Pressure  
Sea Level Pressure 29.75 in    
Wind  
Wind Speed 17 mph (NNE)    
Max Wind Speed 25 mph    
Max Gust Speed 33 mph    
Visibility 2 miles    
Events Fog , Snow    
T = Trace of Precipitation, MM = Missing Value Source: NWS Daily Summary

Daily Weather History Graph

Daily Weather History Graph

Search for Another Location

Airport or City:

Trip Planner

Search our weather history database for the weather conditions in past years. The results will help you decide how hot, cold, wet, or windy it might be!

Date:

Astronomy

Mar. 24, 2013 Rise Set
Actual Time 6:55 AM CDT 7:15 PM CDT
Civil Twilight 6:28 AM CDT 7:42 PM CDT
Nautical Twilight 5:56 AM CDT 8:13 PM CDT
Astronomical Twilight 5:24 AM CDT 8:46 PM CDT
Moon 4:43 PM CDT (3/24) 5:05 AM CDT (3/24)
Length of Visible Light 13h 13m
Length of Day
12h 19m
Waxing Gibbous, 92% of the Moon is Illuminated
Mar 24
Waxing Gibbous
Mar 27
Full
Apr 2
Last Quarter
Apr 10
New
Apr 18
First Quarter

Hourly Weather History & Observations

Time (CDT) Temp. Windchill Dew Point Humidity Pressure Visibility Wind Dir Wind Speed Gust Speed Precip Events Conditions
12:52 AM 35.1 °F 26.9 °F 25.0 °F 67% 29.92 in 10.0 mi NE 11.5 mph - 0.00 in   Overcast
1:43 AM 33.8 °F 23.9 °F 26.6 °F 75% 29.95 in 2.5 mi NE 15.0 mph - 0.00 in Snow Light Snow
1:47 AM 33.8 °F 23.9 °F 28.4 °F 81% 29.95 in 1.2 mi NNE 15.0 mph - 0.00 in Snow Light Snow
1:52 AM 32.0 °F 22.1 °F 28.9 °F 88% 29.96 in 0.8 mi NNE 13.8 mph - 0.01 in Snow Light Snow
2:06 AM 30.2 °F 21.3 °F 30.2 °F 100% 29.95 in 0.8 mi NE 10.4 mph - N/A Snow Light Snow
2:52 AM 30.0 °F 21.1 °F 30.0 °F 100% 29.94 in 1.0 mi ENE 10.4 mph - 0.09 in Snow Light Snow
3:23 AM 30.2 °F 19.8 °F 28.4 °F 93% 29.90 in 1.8 mi NE 13.8 mph - 0.02 in Snow Light Snow
3:31 AM 30.2 °F 19.8 °F 28.4 °F 93% 29.89 in 2.5 mi NE 13.8 mph - 0.02 in Snow Light Snow
3:39 AM 30.2 °F 19.8 °F 28.4 °F 93% 29.88 in 3.0 mi NE 13.8 mph - 0.02 in Snow Light Snow
3:52 AM 30.0 °F 17.9 °F 28.9 °F 96% 29.86 in 2.0 mi ENE 18.4 mph - 0.02 in Snow Light Snow
4:08 AM 30.2 °F 19.3 °F 28.4 °F 93% 29.84 in 1.8 mi NE 15.0 mph 24.2 mph 0.01 in Snow Light Snow
4:22 AM 30.2 °F 18.9 °F 28.4 °F 93% 29.84 in 1.2 mi NE 16.1 mph - 0.01 in Snow Light Snow
4:38 AM 30.2 °F 19.3 °F 28.4 °F 93% 29.82 in 1.5 mi NE 15.0 mph - 0.02 in Snow Light Snow
4:49 AM 30.2 °F 19.3 °F 28.4 °F 93% 29.83 in 2.5 mi NE 15.0 mph - 0.02 in Snow Light Snow
4:52 AM 30.0 °F 19.1 °F 28.9 °F 96% 29.84 in 2.5 mi NE 15.0 mph - 0.02 in Snow Light Snow
5:18 AM 30.2 °F 19.3 °F 28.4 °F 93% 29.83 in 3.0 mi NE 15.0 mph - 0.00 in Snow Light Snow
5:52 AM 30.0 °F 18.7 °F 28.9 °F 96% 29.82 in 7.0 mi NE 16.1 mph - 0.00 in   Overcast
6:52 AM 30.0 °F 18.3 °F 28.0 °F 92% 29.78 in 8.0 mi NE 17.3 mph - N/A   Overcast
7:52 AM 30.0 °F 18.3 °F 28.0 °F 92% 29.75 in 8.0 mi NE 17.3 mph - N/A   Overcast
8:52 AM 30.0 °F 17.9 °F 28.0 °F 92% 29.70 in 7.0 mi ENE 18.4 mph - N/A   Overcast
9:52 AM 30.9 °F 20.7 °F 28.0 °F 89% 29.69 in 7.0 mi NNE 13.8 mph - N/A   Overcast
10:29 AM 30.2 °F 18.9 °F 28.4 °F 93% 29.69 in 1.2 mi North 16.1 mph - 0.00 in Snow Light Snow
10:52 AM 30.9 °F 20.2 °F 28.9 °F 92% 29.70 in 0.8 mi North 15.0 mph - 0.01 in Snow Light Snow
11:10 AM 30.2 °F 18.9 °F 28.4 °F 93% 29.68 in 0.2 mi North 16.1 mph - 0.02 in Fog , Snow Heavy Snow
11:21 AM 30.2 °F 18.9 °F 30.2 °F 100% 29.68 in 0.2 mi North 16.1 mph - 0.04 in Fog , Snow Snow
11:52 AM 30.0 °F 18.3 °F 28.9 °F 96% 29.68 in 0.2 mi North 17.3 mph - 0.09 in Fog , Snow Heavy Snow
12:52 PM 30.0 °F 18.7 °F 30.0 °F 100% 29.67 in 0.2 mi North 16.1 mph 24.2 mph 0.10 in Fog , Snow Heavy Snow
1:52 PM 30.0 °F 17.9 °F 30.0 °F 100% 29.62 in 0.2 mi North 18.4 mph 29.9 mph 0.07 in Fog , Snow Snow
2:04 PM 30.2 °F 18.1 °F 30.2 °F 100% 29.61 in 0.5 mi North 18.4 mph 28.8 mph 0.00 in Fog , Snow Snow
2:39 PM 30.2 °F 19.3 °F 30.2 °F 100% 29.59 in 0.2 mi North 15.0 mph 26.5 mph 0.03 in Fog , Snow Snow
2:52 PM 30.9 °F 18.7 °F 30.0 °F 96% 29.61 in 0.2 mi North 19.6 mph 28.8 mph 0.04 in Fog , Snow Snow
3:11 PM 30.2 °F 18.1 °F 30.2 °F 100% 29.58 in 0.5 mi North 18.4 mph 28.8 mph 0.02 in Fog , Snow Snow
3:34 PM 30.2 °F 18.1 °F 30.2 °F 100% 29.59 in 0.2 mi North 18.4 mph - 0.03 in Fog , Snow Snow
3:49 PM 30.2 °F 18.1 °F 30.2 °F 100% 29.59 in 0.5 mi North 18.4 mph 29.9 mph 0.04 in Fog , Snow Snow
3:52 PM 30.9 °F 18.4 °F 30.0 °F 96% 29.60 in 0.5 mi North 20.7 mph 28.8 mph 0.04 in Fog , Snow Snow
4:28 PM 30.2 °F 19.3 °F 30.2 °F 100% 29.59 in 0.2 mi North 15.0 mph - 0.02 in Fog , Snow Snow
4:52 PM 30.9 °F 18.7 °F 30.0 °F 96% 29.62 in 0.2 mi North 19.6 mph 27.6 mph 0.04 in Fog , Snow Heavy Snow
4:59 PM 30.2 °F 18.9 °F 30.2 °F 100% 29.60 in 0.2 mi North 16.1 mph 27.6 mph 0.00 in Fog , Snow Snow
5:52 PM 30.9 °F 19.1 °F 30.9 °F 100% 29.65 in 0.2 mi North 18.4 mph 26.5 mph 0.05 in Fog , Snow Snow
6:52 PM 30.9 °F 20.7 °F 30.9 °F 100% 29.68 in 0.5 mi North 13.8 mph 21.9 mph 0.05 in Fog , Snow Snow
7:48 PM 30.2 °F 18.1 °F 30.2 °F 100% 29.70 in 1.0 mi North 18.4 mph 25.3 mph 0.04 in Snow Light Snow
7:52 PM 30.9 °F 18.7 °F 30.0 °F 96% 29.72 in 1.0 mi North 19.6 mph 25.3 mph 0.04 in Snow Light Snow
8:52 PM 30.9 °F 19.8 °F 30.0 °F 96% 29.73 in 1.0 mi NNW 16.1 mph 23.0 mph 0.04 in Snow Light Snow
9:31 PM 30.2 °F 19.8 °F 30.2 °F 100% 29.73 in 0.8 mi NNW 13.8 mph 21.9 mph 0.02 in Snow Light Snow
9:52 PM 30.9 °F 19.8 °F 30.0 °F 96% 29.75 in 0.8 mi NNW 16.1 mph 25.3 mph 0.04 in Snow Light Snow
10:03 PM 30.2 °F 18.1 °F 30.2 °F 100% 29.74 in 1.0 mi NNW 18.4 mph 25.3 mph 0.00 in Snow Light Snow
10:52 PM 30.9 °F 20.2 °F 30.0 °F 96% 29.76 in 1.5 mi NNW 15.0 mph - 0.03 in Snow Light Snow
11:27 PM 30.2 °F 18.5 °F 28.4 °F 93% 29.75 in 3.0 mi NNW 17.3 mph 26.5 mph 0.01 in Snow Light Snow
11:52 PM 30.9 °F 20.2 °F 28.0 °F 89% 29.77 in 5.0 mi NW 15.0 mph 24.2 mph 0.01 in Snow Light Snow